EW9454 Weather Reports


time (UTC)temp
F
wind
direction
speed
knots
gust
knots
rain 1hr
in
rain 24hr
in
rain mn
in
humidity
%
barometer
mb
20260504110512 47 245 1.7 8.7 0.00 0.01 0.01 82 1007.4
20260504100513 46 232 0.9 6.1 0.00 0.01 0.01 84 1007.6
20260504081547 45 146 0.0 6.1 0.01 0.01 0.01 86 1008.3
20260504081013 45 219 1.7 6.1 0.01 0.01 0.01 86 1008.4
20260504080515 45 146 0.0 1.7 0.01 0.01 0.01 86 1008.3
20260504050519 44 130 0.9 3.5 0.00 0.00 0.00 72 1008.5
20260504045518 44 129 0.0 1.7 0.00 0.00 0.00 71 1008.5
20260504045009 44 129 0.0 1.7 0.00 0.00 0.00 69 1008.5
20260504044557 44 129 0.0 1.7 0.00 0.00 0.00 68 1008.8
20260504044013 44 129 0.0 2.6 0.00 0.00 0.00 68 1008.7
20260504043511 44 128 0.0 2.6 0.00 0.00 0.00 67 1008.7
20260504043030 44 128 0.9 2.6 0.00 0.00 0.00 67 1008.7
20260504042511 44 128 0.0 2.6 0.00 0.00 0.00 68 1008.6
20260504042010 44 128 0.0 5.2 0.00 0.00 0.00 69 1008.6
20260504041530 44 125 1.7 4.3 0.00 0.00 0.00 69 1008.7
20260504041008 44 148 0.9 4.3 0.00 0.00 0.00 70 1008.5
20260504040513 44 152 0.9 4.3 0.00 0.00 0.00 70 1008.6
20260504040028 44 137 0.0 3.5 0.00 0.00 0.00 68 1008.7
20260504035509 44 137 0.0 3.5 0.00 0.00 0.00 68 1008.6
20260504035011 44 137 0.0 1.7 0.00 0.00 0.00 66 1008.7
20260504034528 44 137 0.0 1.7 0.00 0.00 0.00 66 1008.8
20260504034007 44 135 0.0 3.5 0.00 0.00 0.00 65 1008.8
20260504033512 44 135 0.9 3.5 0.00 0.00 0.00 66 1008.8
20260504033027 44 123 0.0 1.7 0.00 0.00 0.00 68 1008.7
20260504032510 44 123 0.0 1.7 0.00 0.00 0.00 68 1008.8
20260504032015 44 123 0.0 3.5 0.00 0.00 0.00 67 1008.8
20260504031530 43 123 0.9 3.5 0.00 0.00 0.00 68 1008.9
20260504031010 43 122 0.0 1.7 0.00 0.00 0.00 69 1009.0
20260504030510 43 122 0.9 2.6 0.00 0.00 0.00 70 1008.8
20260504030039 43 121 0.9 2.6 0.00 0.00 0.00 70 1008.8
20260504025510 43 121 0.0 1.7 0.00 0.00 0.00 71 1008.9
20260504025009 44 121 0.9 3.5 0.00 0.00 0.00 70 1009.1
20260504024530 44 124 1.7 3.5 0.00 0.00 0.00 70 1008.9
20260504024007 45 141 0.9 6.1 0.00 0.00 0.00 70 1008.9
20260504023510 45 175 1.7 6.1 0.00 0.00 0.00 69 1008.7
20260504023031 46 212 0.9 5.2 0.00 0.00 0.00 68 1008.9
20260504022502 47 219 2.6 6.1 0.00 0.00 0.00 63 1008.9
20260504022011 47 203 3.5 6.1 0.00 0.00 0.00 62 1008.9
20260504021530 47 209 2.6 6.1 0.00 0.00 0.00 54 1009.0
20260504021012 47 218 2.6 7.0 0.00 0.00 0.00 57 1009.0
20260504020510 47 196 2.6 6.1 0.00 0.00 0.00 62 1009.2
20260504020027 48 225 1.7 7.0 0.00 0.00 0.00 51 1009.1
20260504015510 48 256 3.5 7.0 0.00 0.00 0.00 51 1009.0
20260504015007 48 244 3.5 6.1 0.00 0.00 0.00 51 1009.0
20260504014530 48 238 3.5 8.7 0.00 0.00 0.00 51 1009.1
20260504014011 48 224 3.5 8.7 0.00 0.00 0.00 51 1009.1
20260504013508 48 225 3.5 7.0 0.00 0.00 0.00 51 1009.0
20260504013030 48 240 3.5 7.0 0.00 0.00 0.00 53 1009.2
20260504012512 48 247 3.5 6.1 0.00 0.00 0.00 53 1009.3
20260504012017 47 258 2.6 5.2 0.00 0.00 0.00 54 1009.3
20260504011528 47 247 1.7 6.1 0.00 0.00 0.00 53 1009.2
20260504011008 46 238 3.5 8.7 0.00 0.00 0.00 56 1009.0
20260504010510 46 242 3.5 8.7 0.00 0.00 0.00 57 1009.0
20260504010030 45 229 2.6 3.5 0.00 0.00 0.00 59 1009.0
20260504005511 44 244 1.7 3.5 0.00 0.01 0.00 60 1009.0
20260504005011 43 240 1.7 3.5 0.00 0.01 0.00 62 1009.0
20260504004503 43 234 1.7 3.5 0.00 0.01 0.00 64 1008.8
20260504004011 43 228 0.9 3.5 0.00 0.01 0.00 66 1008.8
20260504003509 43 214 1.7 3.5 0.00 0.01 0.00 66 1008.8
20260504003029 43 138 0.0 1.7 0.00 0.01 0.00 67 1008.8
20260504002507 44 137 0.0 1.7 0.00 0.01 0.00 67 1008.9
20260504002007 44 137 0.0 1.7 0.00 0.01 0.00 67 1008.9
20260504001530 45 137 0.0 1.7 0.00 0.01 0.00 66 1008.7
20260504001003 46 137 0.0 1.7 0.00 0.01 0.00 65 1008.6
20260504000502 46 137 0.0 0.0 0.00 0.01 0.00 64 1008.8
20260504000030 47 137 0.0 1.7 0.00 0.01 0.00 63 1008.8
20260503235507 47 137 0.0 1.7 0.00 0.01 0.00 63 1008.8
20260503235011 48 137 0.9 1.7 0.00 0.01 0.00 62 1008.6
20260503234542 48 137 0.0 0.9 0.00 0.01 0.00 63 1008.7
20260503234008 48 137 0.0 0.0 0.00 0.01 0.00 62 1008.8
20260503233513 49 137 0.0 0.0 0.00 0.01 0.00 62 1008.7
20260503233003 50 137 0.0 0.0 0.00 0.01 0.00 59 1008.7
20260503232511 50 137 0.0 0.0 0.00 0.01 0.00 59 1008.6
20260503232011 51 137 0.0 0.0 0.00 0.01 0.00 57 1008.5
20260503231529 51 137 0.0 1.7 0.00 0.01 0.00 58 1008.5
20260503231015 51 137 0.0 3.5 0.00 0.01 0.00 54 1008.6
20260503230516 51 140 0.9 3.5 0.00 0.01 0.00 54 1008.5
20260503230037 51 159 0.9 4.3 0.00 0.01 0.00 54 1008.7
20260503225516 51 213 1.7 4.3 0.00 0.01 0.00 54 1008.6
20260503225012 51 188 0.0 2.6 0.00 0.01 0.00 54 1008.6
20260503224528 51 188 0.0 2.6 0.00 0.01 0.00 54 1008.6
20260503224008 51 139 0.0 1.7 0.00 0.01 0.00 57 1008.6
20260503223514 51 139 0.0 1.7 0.00 0.01 0.00 55 1008.7
20260503223029 51 139 0.0 1.7 0.00 0.01 0.00 53 1008.7
20260503222508 51 140 0.0 1.7 0.00 0.01 0.00 52 1008.6
20260503222008 51 140 0.0 1.7 0.00 0.01 0.00 52 1008.6
20260503221528 51 140 0.0 1.7 0.00 0.01 0.00 53 1008.6
20260503221015 51 140 0.0 1.7 0.00 0.01 0.00 52 1008.8
20260503220508 51 140 0.0 0.0 0.00 0.01 0.00 52 1008.7
20260503220042 51 140 0.0 0.0 0.00 0.01 0.00 54 1008.7
20260503215509 51 140 0.0 0.0 0.00 0.01 0.00 53 1008.7
20260503215013 51 140 0.0 1.7 0.00 0.01 0.00 51 1008.7
20260503214503 51 140 0.0 1.7 0.00 0.01 0.00 54 1008.6
20260503214009 51 140 0.0 1.7 0.00 0.01 0.00 52 1008.5
20260503213509 51 140 0.0 1.7 0.00 0.01 0.00 51 1008.5
20260503213015 51 140 0.0 1.7 0.00 0.01 0.00 53 1008.6
20260503212509 51 140 0.9 1.7 0.00 0.01 0.00 50 1008.6
20260503212008 51 139 0.0 1.7 0.00 0.01 0.00 49 1008.5
20260503211528 51 139 0.9 1.7 0.00 0.01 0.00 49 1008.4
20260503211008 51 72 0.0 1.7 0.00 0.01 0.00 49 1008.4
20260503210508 51 72 0.0 1.7 0.00 0.01 0.00 49 1008.5
20260503210030 51 72 0.0 1.7 0.00 0.01 0.00 49 1008.5
20260503205512 51 72 0.0 1.7 0.00 0.04 0.00 49 1008.4
20260503205009 51 60 0.0 1.7 0.00 0.04 0.00 49 1008.4
20260503204530 51 60 0.0 1.7 0.00 0.04 0.00 51 1008.4
20260503204014 51 60 0.0 1.7 0.00 0.04 0.00 54 1008.5
20260503203509 51 56 0.9 2.6 0.00 0.04 0.00 54 1008.5
20260503203031 51 32 0.9 3.5 0.00 0.04 0.00 54 1008.4
20260503202511 51 47 1.7 3.5 0.00 0.04 0.00 56 1008.5
20260503202004 51 103 0.0 3.5 0.00 0.04 0.00 56 1008.5
20260503201530 51 103 0.9 3.5 0.00 0.04 0.00 56 1008.5
20260503201012 50 103 0.9 3.5 0.00 0.04 0.00 56 1008.7
20260503200510 50 59 0.0 4.3 0.00 0.04 0.00 56 1008.8
20260503200028 50 61 2.6 4.3 0.00 0.04 0.00 55 1008.8
20260503195510 50 59 1.7 4.3 0.00 0.04 0.00 56 1008.7
20260503195009 50 42 1.7 4.3 0.00 0.04 0.00 54 1008.8
20260503194531 51 42 1.7 3.5 0.00 0.04 0.00 54 1008.8
20260503194011 50 36 0.0 1.7 0.00 0.04 0.00 53 1009.0
20260503193514 50 34 0.9 3.5 0.00 0.04 0.00 53 1009.1
20260503193034 50 40 1.7 3.5 0.00 0.04 0.00 53 1009.2
20260503192510 50 28 0.9 3.5 0.00 0.04 0.00 54 1009.3
20260503192009 50 89 0.9 3.5 0.00 0.04 0.00 59 1009.4
20260503191532 49 48 0.0 5.2 0.00 0.04 0.00 59 1009.5
20260503191010 49 67 0.9 5.2 0.00 0.04 0.00 56 1009.5
20260503190511 50 19 2.6 4.3 0.00 0.04 0.00 57 1009.4
20260503190030 50 16 1.7 3.5 0.00 0.04 0.00 56 1009.5
20260503185511 50 360 1.7 3.5 0.00 0.04 0.00 56 1009.5
20260503185011 49 72 0.9 3.5 0.00 0.04 0.00 56 1009.6
20260503184530 49 30 0.9 2.6 0.00 0.04 0.00 56 1009.6
20260503184012 49 28 0.9 3.5 0.00 0.04 0.00 56 1009.7
20260503183510 49 38 1.7 3.5 0.00 0.04 0.00 56 1009.7
20260503183044 50 38 0.9 3.5 0.00 0.04 0.00 57 1009.7
20260503182511 50 51 1.7 5.2 0.00 0.04 0.00 58 1009.8
20260503182011 49 21 1.7 5.2 0.00 0.04 0.00 57 1009.8
20260503181531 49 36 1.7 3.5 0.00 0.04 0.00 57 1010.0
20260503181012 49 58 0.9 3.5 0.00 0.04 0.00 59 1009.9
20260503180510 49 85 0.0 3.5 0.00 0.04 0.00 58 1009.9
20260503180030 49 345 0.9 2.6 0.00 0.04 0.00 58 1009.9
20260503175509 49 22 0.0 2.6 0.00 0.04 0.00 58 1009.9
20260503175013 49 17 0.9 2.6 0.00 0.04 0.00 60 1009.8
20260503174532 49 117 0.0 2.6 0.00 0.04 0.00 60 1009.9
20260503174011 49 117 0.0 2.6 0.00 0.04 0.00 58 1009.9
20260503173512 49 122 0.9 4.3 0.00 0.04 0.00 59 1010.0
20260503173030 49 9 1.7 4.3 0.00 0.04 0.00 60 1009.9
20260503172510 49 62 0.0 2.6 0.00 0.04 0.00 60 1010.1
20260503172011 48 65 0.9 2.6 0.00 0.04 0.00 60 1010.1
20260503171529 48 331 0.9 4.3 0.00 0.04 0.00 63 1010.1
20260503171010 48 13 1.7 4.3 0.00 0.04 0.00 65 1010.0
20260503170511 48 333 1.7 3.5 0.00 0.04 0.00 64 1010.0
20260503151011 46 36 3.5 7.8 0.00 0.04 0.00 65 1011.0
20260503150513 47 80 2.6 6.1 0.00 0.04 0.00 66 1011.0
20260503131013 45 66 0.9 7.0 0.00 0.04 0.00 73 1011.6
20260503130512 45 36 0.9 3.5 0.00 0.04 0.00 74 1011.7